Location: Bonac
(42.8765°N, 0.9753°E)
Time: 09:21:46
(UTC+00:00)

DMSP B5D1-3 - Pass Details

Date: 12 January 2026
Orbit: 759 x 772 km, 98.5° (Epoch: 18 February)

Event Time Altitude Azimuth Distance (km) Brightness Sun altitude
Exits shadow 18:40:21 31° 30° (NNE) 1,323 5.4 -20.9°
Maximum altitude 18:42:45 64° 102° (ESE) 842 4.4 -21.3°
Drops below altitude 10° 18:47:44 10° 183° (S) 2,287 7.1 -22.2°
Sets 18:50:03 0° 187° (S) 3,210 7.9 -22.6°
